User: anonymous   Login
Location: Unspecified
(0.0000°N, 0.0000°E)
Time: 21:28:48
(UTC+00:00)
Language:

NOSS 3-4 (A) - Orbit

View from above orbital plane
View from above orbital plane
View from above satellite
View from above satellite

Ground track
Ground track

The orbit data is extracted from the following two-line orbital elements,

1 31701U 07027A   20037.24550453 0.00000000  00000-0  00000-0 0    01
2 31701  63.3976 144.5066 0274706  20.1862 339.8138 13.40795667    02
Epoch (UTC): 06 February 2020 05:53:31
Eccentricity: 0.0274706
inclination: 63.3976°
perigee height: 901 km
apogee height: 1312 km
right ascension of ascending node: 144.5066°
argument of perigee: 20.1862°
revolutions per day: 13.40795667
mean anomaly at epoch: 339.8138°
orbit number at epoch: 0

The dashed part of the orbit path shows where the satellite is in the earth's shadow,  

DLR